Wengen, Switzerland 16 day weather forecast

Slopes altitude range 945 m - 2970m

Number of lifts: 44 Pistes: 213km

In some cases the lift and piste totals shown are for the ski domain (e.g. Three Valleys) rather than individual resort (e.g. Courchevel)

Overview

The 16 day weather forecast is fully updated 4 times every day.

    • Wed 19 DEC 2018
    • Wed 19
    • -9C -5C
    • Thu 20 DEC 2018
    • Thu 20
    • -11C -6C
    • Fri 21 DEC 2018
    • Fri 21
    • -7C -2C
    • Sat 22 DEC 2018
    • Sat 22
    • -2C -1C
    • Sun 23 DEC 2018
    • Sun 23
    • -5C -2C
    • Mon 24 DEC 2018
    • Mon 24
    • -3C -1C
    • Tue 25 DEC 2018
    • Tue 25
    • -5C 1C
    • Wed 26 DEC 2018
    • Wed 26
    • 3C 6C
    • Thu 27 DEC 2018
    • Thu 27
    • 2C 6C
    • Fri 28 DEC 2018
    • Fri 28
    • 2C 6C
    • Sat 29 DEC 2018
    • Sat 29
    • 4C 7C
    • Sun 30 DEC 2018
    • Sun 30
    • 3C 9C
    • Mon 31 DEC 2018
    • Mon 31
    • 2C 8C
    • Tue 01 JAN 2019
    • Tue 01
    • 1C 8C
    • Wed 02 JAN 2019
    • Wed 02
    • 3C 11C
    • Thu 03 JAN 2019
    • Thu 03
    • 1C 8C

Date:

Time Type 0°C level Temp Chill Snow Cloud Speed Gust Dir Press
3:00 1406m -8°C -8_8 0cm 100% 8mph 8mph 1022mB
6:00 1280m -8°C -8_7 0cm 100% 7mph 7mph 1022mB
9:00 1398m -9°C -9_7 0cm 100% 7mph 7mph 1022mB
12:00 1695m -5°C -5_8 0cm 100% 8mph 8mph 1020mB
15:00 1493m -5°C -5_8 1cm 100% 8mph 9mph 1019mB
18:00 1392m -5°C -5_4 2cm 100% 4mph 4mph 1020mB
21:00 1454m -8°C -8_3 3cm 100% 3mph 4mph 1020mB
0:00 1490m -8°C -8_4 2cm 100% 4mph 5mph 1021mB
3:00 1292m -8°C -8_4 1cm 99% 4mph 4mph 1022mB
6:00 1116m -10°C -10_4 1cm 98% 4mph 4mph 1023mB
9:00 1256m -11°C -11_5 1cm 92% 5mph 6mph 1024mB
12:00 1549m -6°C -6_6 0cm 88% 6mph 7mph 1022mB
15:00 1254m -6°C -6_5 1cm 99% 5mph 6mph 1023mB
18:00 590m -6°C -6_5 1cm 88% 5mph 7mph 1026mB
21:00 776m -13°C -13_4 0cm 65% 4mph 6mph 1027mB
0:00 769m -13°C -13_5 0cm 83% 5mph 7mph 1027mB
3:00 1180m -11°C -11_5 0cm 100% 5mph 6mph 1025mB
6:00 1504m -11°C -11_8 1cm 100% 8mph 9mph 1024mB
9:00 1756m -7°C -7_9 5cm 100% 9mph 11mph 1024mB
12:00 2190m -2°C -2_8 5cm 100% 8mph 11mph 1022mB
15:00 2292m -2°C -2_7 5cm 100% 7mph 10mph 1022mB
18:00 2321m -1°C -1_6 3cm 100% 6mph 8mph 1022mB
21:00 2154m -3°C -3_6 1cm 100% 6mph 7mph 1022mB
0:00 2409m -3°C -3_7 3cm 100% 7mph 10mph 1021mB
3:00 2417m -1°C -1_7 5cm 100% 7mph 10mph 1021mB
6:00 2331m -2°C -2_8 6cm 100% 8mph 11mph 1021mB
9:00 2312m -2°C -2_9 2cm 100% 9mph 13mph 1022mB
12:00 2305m -1°C -1_9 2cm 100% 9mph 12mph 1021mB
15:00 2177m -1°C -1_8 1cm 97% 8mph 11mph 1022mB
18:00 1665m -1°C -1_6 0cm 97% 6mph 8mph 1025mB
21:00 1468m -7°C -7_6 0cm 97% 6mph 8mph 1026mB
0:00 1329m -8°C -8_6 0cm 96% 6mph 8mph 1026mB
3:00 1704m -7°C -7_6 1cm 99% 6mph 8mph 1026mB
6:00 1876m -7°C -7_6 1cm 99% 6mph 9mph 1026mB
9:00 2075m -5°C -5_7 2cm 100% 7mph 9mph 1027mB
12:00 2182m -2°C -2_8 3cm 100% 8mph 10mph 1026mB
15:00 2172m -2°C -2_7 3cm 100% 7mph 10mph 1026mB
18:00 2118m -2°C -2_6 2cm 100% 6mph 8mph 1027mB
21:00 2115m -3°C -3_6 2cm 99% 6mph 7mph 1027mB
0:00 2163m -3°C -3_6 1cm 99% 6mph 7mph 1027mB
3:00 2189m -3°C -3_7 3cm 100% 7mph 10mph 1026mB
6:00 2236m -3°C -3_8 3cm 100% 8mph 10mph 1027mB
9:00 2355m -3°C -3_6 1cm 100% 6mph 8mph 1027mB
12:00 2452m -1°C -1_7 1cm 99% 7mph 9mph 1026mB
15:00 2408m 0°C 0_5 0cm 100% 5mph 6mph 1027mB
18:00 1746m 0°C 0_2 0cm 100% 2mph 3mph 1028mB
21:00 1669m -6°C -6_1 0cm 99% 1mph 3mph 1028mB
0:00 1694m -6°C -6_1 0cm 99% 1mph 2mph 1027mB
3:00 1679m -6°C -6_1 0cm 99% 1mph 2mph 1026mB
6:00 1712m -6°C -6_1 0cm 100% 1mph 2mph 1026mB
9:00 2292m -5°C -5_1 0cm 100% 1mph 2mph 1025mB
12:00 3131m 1°C 1_1 0cm 100% 1mph 1mph 1022mB
15:00 2680m 1°C 1_2 0cm 100% 2mph 2mph 1021mB
18:00 2115m 1°C 1_5 0cm 100% 5mph 5mph 1022mB
21:00 1916m -4°C -4_5 0cm 100% 5mph 5mph 1022mB
0:00 1621m -6°C -6_3 0cm 91% 3mph 4mph 1022mB
3:00 1584m -7°C -7_1 0cm 91% 1mph 2mph 1023mB
6:00 1691m -7°C -7_3 1cm 96% 3mph 3mph 1023mB
9:00 1804m 3°C 3_4 0cm 100% 4mph 6mph 1024mB
12:00 1774m 6°C 6_3 0cm 100% 3mph 6mph 1023mB
15:00 1767m 6°C 6_2 0cm 99% 2mph 3mph 1023mB
18:00 1745m 6°C 6_3 0cm 98% 3mph 4mph 1025mB
21:00 1744m 2°C 2_4 0cm 97% 4mph 5mph 1026mB
0:00 1775m 2°C 2_5 0cm 99% 5mph 6mph 1026mB
3:00 1700m 2°C 2_4 0cm 99% 4mph 6mph 1026mB
6:00 1644m 2°C 2_5 0cm 98% 5mph 6mph 1026mB
9:00 1615m 2°C 2_4 0cm 97% 4mph 7mph 1027mB
12:00 1648m 6°C 6_3 0cm 95% 3mph 8mph 1026mB
15:00 1737m 6°C 6_2 0cm 38% 2mph 3mph 1025mB
18:00 1793m 6°C 6_5 0cm 43% 5mph 6mph 1027mB
21:00 1818m 3°C 3_4 0cm 99% 4mph 6mph 1027mB
0:00 1804m 3°C 3_4 0cm 99% 4mph 5mph 1027mB
3:00 1806m 3°C 3_4 0cm 99% 4mph 5mph 1028mB
6:00 1904m 2°C 2_5 0cm 83% 5mph 7mph 1028mB
9:00 1813m 2°C 2_4 0cm 95% 4mph 7mph 1030mB
12:00 1875m 6°C 6_2 0cm 97% 2mph 4mph 1029mB
15:00 1885m 6°C 6_2 0cm 92% 2mph 3mph 1029mB
18:00 1810m 6°C 6_4 0cm 84% 4mph 5mph 1031mB
Morning 0.00520833mm 0 2287m 2°C 2_6 0cm 28% 6mph 11mph 1032mB
Afternoon 0.0260417mm 0 2123m 7°C 7_5 0cm 53% 5mph 6mph 1032mB
Morning 0mm 0 2577m 3°C 3_4 0cm 17% 4mph 5mph 1032mB
Afternoon 0mm 0 2830m 9°C 9_4 0cm 28% 4mph 5mph 1032mB
Morning 0mm 0 2443m 3°C 3_4 0cm 82% 4mph 5mph 1034mB
Afternoon 0mm 0 2416m 8°C 8_4 0cm 28% 4mph 5mph 1037mB
Morning 0mm 0 2739m 1°C 1_4 0cm 1% 4mph 5mph 1037mB
Afternoon 0mm 0 2923m 8°C 8_4 0cm 0% 4mph 5mph 1035mB
Morning 0mm 0 3067m 2°C 2_6 0cm 0% 6mph 7mph 1036mB
Afternoon 0mm 0 2581m 11°C 11_5 0cm 0% 5mph 6mph 1035mB
Morning 0mm 0 2476m 1°C 1_5 0cm 5% 5mph 6mph 1037mB
Afternoon 0mm 0 2646m 8°C 8_5 0cm 14% 5mph 6mph 1037mB

16 day outlook at a glance

Forecast issued: 19/12/2018 03:12:40

Chat

Your comments and questions. In a resort? Let us know what it's like!


Characters left 250

For terms and conditions see Readers Comments on the Cookie and privacy policy page.